DW8923 Weather Reports


time (UTC)temp
C
wind
direction
speed
KPH
gust
KPH
rain 1hr
cm
rain 24hr
cm
rain mn
cm
humidity
%
barometer
mb
20260901084558 26 160 0.0 6.4 0.00 0.00 0.00 77 1013.9
20260901083052 26 119 0.0 4.8 0.00 0.00 0.00 75 1013.7
20260901081549 26 169 0.0 6.4 0.00 0.00 0.00 74 1013.8
20260901080049 26 154 1.6 4.8 0.00 0.00 0.00 73 1013.9
20260901074547 27 153 0.0 8.0 0.00 0.00 0.00 73 1014.0
20260901073045 27 123 1.6 4.8 0.00 0.00 0.00 73 1014.0
20260901071556 27 115 1.6 6.4 0.00 0.00 0.00 72 1014.1
20260901070041 27 165 1.6 6.4 0.00 0.00 0.00 71 1014.2
20260901064542 27 140 3.2 11.3 0.00 0.00 0.00 71 1014.1
20260901063035 27 167 3.2 11.3 0.00 0.00 0.00 70 1013.8
20260901061534 28 109 3.2 8.0 0.00 0.00 0.00 69 1013.7
20260901060031 28 137 3.2 11.3 0.00 0.00 0.00 68 1013.6
20260901054529 28 128 3.2 9.7 0.00 0.00 0.00 67 1013.5
20260901053027 28 167 3.2 12.9 0.00 0.00 0.00 66 1013.4
20260901051524 28 144 4.8 11.3 0.00 0.00 0.00 65 1013.3
20260901050023 29 148 3.2 12.9 0.00 0.00 0.00 64 1013.2
20260901044521 29 200 4.8 11.3 0.00 0.00 0.00 63 1013.2
20260901043022 29 134 3.2 14.5 0.00 0.00 0.00 62 1013.1
20260901041519 30 115 8.0 16.1 0.00 0.00 0.00 61 1013.0
20260901040018 30 200 4.8 16.1 0.00 0.00 0.00 60 1013.0
20260901034517 30 173 6.4 16.1 0.00 0.00 0.00 58 1013.0
20260901033016 29 130 6.4 17.7 0.00 0.00 0.00 58 1012.9
20260901031513 28 147 3.2 9.7 0.00 0.00 0.00 57 1012.7
20260901030010 28 90 0.0 0.0 0.00 0.00 0.00 55 1012.6
20260901024506 29 90 0.0 0.0 0.00 0.00 0.00 55 1012.3
20260901023008 30 90 0.0 0.0 0.00 0.00 0.00 52 1012.1
20260901021559 30 90 0.0 0.0 0.00 0.00 0.00 49 1012.0
20260901020058 31 90 0.0 0.0 0.00 0.00 0.00 48 1011.8
20260901014552 31 90 0.0 1.6 0.00 0.00 0.00 45 1011.5
20260901013057 32 90 0.0 1.6 0.00 0.00 0.00 44 1011.5
20260901011547 32 65 0.0 3.2 0.00 0.00 0.00 43 1011.3
20260901010045 33 56 1.6 6.4 0.00 0.00 0.00 42 1011.3
20260901004549 33 88 1.6 8.0 0.00 0.00 0.00 41 1011.3
20260901003039 33 119 1.6 6.4 0.00 0.00 0.00 40 1011.2
20260901001536 34 98 1.6 4.8 0.00 0.00 0.00 40 1011.1
20260901000035 35 44 1.6 6.4 0.00 0.00 0.00 39 1011.0
20260831234534 35 117 4.8 11.3 0.00 0.00 0.00 39 1011.1
20260831233030 36 129 4.8 16.1 0.00 0.00 0.00 38 1011.1
20260831231539 36 130 1.6 12.9 0.00 0.00 0.00 36 1011.1
20260831230037 36 124 4.8 8.0 0.00 0.00 0.00 35 1011.2
20260831224527 36 125 1.6 12.9 0.00 0.00 0.00 35 1011.1
20260831223026 36 164 6.4 17.7 0.00 0.00 0.00 35 1011.3
20260831221531 36 104 4.8 14.5 0.00 0.00 0.00 36 1011.5
20260831220025 36 74 4.8 14.5 0.00 0.00 0.00 35 1011.5
20260831214522 37 83 4.8 12.9 0.00 0.00 0.00 38 1011.7
20260831213018 37 189 8.0 14.5 0.00 0.00 0.00 35 1011.9
20260831211527 37 130 8.0 19.3 0.00 0.00 0.00 35 1012.0
20260831210010 37 178 8.0 16.1 0.00 0.00 0.00 36 1012.2
20260831204510 36 157 4.8 14.5 0.00 0.00 0.00 39 1012.6
20260831203010 37 133 6.4 16.1 0.00 0.00 0.00 38 1012.9
20260831201600 36 153 3.2 14.5 0.00 0.00 0.00 42 1013.0
20260831200059 37 167 4.8 14.5 0.00 0.00 0.00 39 1013.2
20260831194620 36 148 3.2 11.3 0.00 0.00 0.00 41 1013.5
20260831193048 36 147 6.4 19.3 0.00 0.00 0.00 40 1013.6
20260831191550 36 175 4.8 17.7 0.00 0.00 0.00 41 1013.8
20260831190046 36 171 4.8 17.7 0.00 0.00 0.00 43 1014.2
20260831184532 35 140 4.8 14.5 0.00 0.00 0.00 44 1014.2